Regional Weather Roundup
Issued by NWS

Home | Current Version | Previous Version | Text Only | Print | Product List | Glossary On
Versions: 1 2 3 4 5 6 7 8 9 10 11 12 13 14 15 16 17 18 19 20 21 22 23 24 25 26 27 28 29 30 31 32 33 34 35 36 37 38 39 40 41 42 43 44 45 46 47 48 49 50
498
ASUS44 KMEG 190510
RWRTN
TENNESSEE HOURLY STATE WEATHER ROUNDUP
NATIONAL WEATHER SERVICE MEMPHIS TN
1100 PM CST WED JAN 18 2017

TNZ002-004-019-021-049-052-054-088>092-190600-
WEST TENNESSEE

CITY           SKY/WX    TMP DP  RH WIND       PRES   REMARKS
MEMPHIS INTL   CLOUDY    52  51  97 NE8       29.99F
NWS MEMPHIS      N/A     51 N/A N/A MISG        N/A
JACKSON        CLOUDY    51  46  83 N5        30.04F
DYERSBURG      CLOUDY    46  43  87 E8        30.04F
UNION CITY     CLOUDY    46  45  93 CALM      30.04F
PARIS          CLOUDY    45  41  87 CALM      30.09R
HUNTINGDON     CLOUDY    48  45  87 NE5       30.06S
$$

TNZ008-025-027-028-033-062-065-066-190600-
NORTH MIDDLE TENNESSEE

CITY           SKY/WX    TMP DP  RH WIND       PRES   REMARKS
NASHVILLE      CLOUDY    46  42  86 CALM      30.10F
PORTLAND       CLEAR     43  41  93 CALM      30.10S
CLARKSVILLE    MOCLDY    46  40  79 CALM      30.09S
SMYRNA         CLOUDY    44  43  96 CALM      30.11F
GALLATIN       PTCLDY    43  41  93 CALM      30.13F
CROSSVILLE     PTCLDY    41  40  96 CALM      30.10S
$$

TNZ061-075-076-078-094-096-097-190600-
SOUTH MIDDLE TENNESSEE

CITY           SKY/WX    TMP DP  RH WIND       PRES   REMARKS
FAYETTEVILLE   CLOUDY    50  46  87 SE3       30.07F
TULLAHOMA      PTCLDY    46  43  87 CALM      30.09R
WINCHESTER     MOCLDY    48  45  87 SW3       30.08F
MCMINNVILLE    CLEAR     43  43 100 CALM      30.08F
COLUMBIA       CLOUDY    46  46 100 NE5       30.06F
SHELBYVILLE    PTCLDY    46  45  93 N3        30.10S
$$

TNZ017-018-042-046-047-190600-
NORTHEAST TENNESSEE

CITY           SKY/WX    TMP DP  RH WIND       PRES   REMARKS
TRI CITIES     CLOUDY    38  36  92 CALM      30.12F
ELIZABETHTON   CLOUDY    37  37 100 CALM      30.12F
$$

TNZ012-013-036-069-073-074-190600-
CENTRAL EAST TENNESSEE

CITY           SKY/WX    TMP DP  RH WIND       PRES   REMARKS
KNOXVILLE      MOCLDY    48  43  82 NE3       30.08F
OAK RIDGE      MOCLDY    47  41  80 CALM      30.11F
GATLINBURG     CLEAR     41  39  93 E3        30.10F
MORRISTOWN     PTCLDY    43  39  87 CALM      30.10F
JACKSBORO      CLEAR     43  41  93 CALM      30.13F
$$

TNZ083-085-099-190600-
SOUTHEAST TENNESSEE

CITY           SKY/WX    TMP DP  RH WIND       PRES   REMARKS
CHATTANOOGA    MOCLDY    51  44  77 CALM      30.11R
$$

SKY/WX REPORTED AS FAIR MEANS FEW OR NO CLOUDS BELOW
12 THOUSAND FEET.





USA.gov is the U.S. government's official web portal to all federal, state and local government web resources and services.